View from above orbital plane
|
View from above satellite
|
Ground track
|
The orbit data is extracted from the following two-line orbital elements,
1 22U 59009A 19348.88917256 -.00000049 +00000-0 +19438-4 0 9991
2 22 050.2848 252.6468 0139859 269.8653 088.6268 14.95006780442615
Epoch (UTC): | 14 December 2019 21:20:24 |
Eccentricity: | 0.0139859 |
inclination: | 50.2848° |
perigee height: | 485 km |
apogee height: | 680 km |
right ascension of ascending node: | 252.6468° |
argument of perigee: | 269.8653° |
revolutions per day: | 14.95006780 |
mean anomaly at epoch: | 88.6268° |
orbit number at epoch: | 44261 |
The dashed part of the orbit path shows where the satellite is in the earth's shadow,
|
|